CAPE
0 0 0 0 0 4 5 8 2 4 4 4 7 11 19 24 15 1 0 1 0 26 316 743 840 722 506 308 214 103 9 0 0 0 0 0 0 0 0 0 0 0 0
0 0 0 0 5 1 1 1 7 10 6 9 8 7 7 8 9 1 6 6 9 30 239 581 812 513 250 77 7 0 0 0 0 0 0 0 0 0 0 0 0 0 0
0 0 0 8 6 4 3 5 3 4 3 1 2 6 9 8 9 2 1 3 0 0 147 394 406 101 0 0 0 0 0 0 0 0 0 0 0 0 0 0 0 0 0
0 1 12 7 5 4 3 6 6 8 11 9 7 5 3 5 7 6 6 5 6 6 0 0 0 0 0 0 0 0 0 0 0 0 0 0 0 0 0 0 0 0 0
4 14 8 10 8 9 6 6 8 10 9 8 6 3 1 5 11 5 6 0 1 0 0 0 0 0 0 0 0 0 0 0 0 0 0 0 0 0 0 0 0 0 0
10 15 14 10 7 7 11 16 9 6 3 2 2 0 1 4 2 0 0 0 0 0 0 1 0 0 0 1 0 0 0 0 0 0 0 0 0 2 0 0 0 0 0
19 11 12 7 11 11 11 6 4 2 2 2 2 1 0 0 1 1 0 0 2 1 1 0 0 0 0 0 0 0 0 0 0 0 0 0 0 0 0 0 0 0 0
11 10 5 8 15 10 6 3 3 4 3 3 2 2 1 1 0 0 0 0 0 0 0 0 0 0 0 0 0 0 0 0 0 0 0 0 0 0 0 0 0 0 0
7 10 5 15 16 6 4 3 6 2 2 2 2 1 0 0 0 0 0 0 0 0 0 0 0 0 0 0 0 0 0 0 0 0 0 0 0 0 0 0 0 0 0
5 9 8 10 10 5 4 4 3 5 3 2 1 1 4 1 0 0 0 0 0 0 0 0 0 0 0 0 0 0 0 0 0 0 0 0 0 0 0 0 0 0 0
9 14 6 4 8 2 1 6 4 3 2 1 1 1 1 0 0 0 0 0 0 0 0 0 0 0 0 0 0 0 0 0 0 0 0 0 0 0 0 0 0 0 0
8 5 5 3 4 4 1 1 3 2 1 1 0 0 0 0 0 0 0 0 0 0 0 0 0 0 0 0 0 0 0 0 0 0 0 2 0 0 0 0 0 0 0
1 5 5 2 3 1 1 1 1 0 0 0 0 0 0 0 0 0 0 0 0 0 0 0 0 0 0 0 0 0 0 0 0 0 0 0 0 0 0 0 0 0 0
6 5 4 3 2 1 1 1 1 0 0 0 0 0 0 0 0 0 0 0 0 0 0 0 0 0 0 0 0 0 0 0 0 0 0 0 0 0 0 0 0 0 0
8 7 4 2 2 1 0 0 0 0 0 0 0 0 0 0 0 0 0 0 0 0 0 0 0 0 0 0 0 0 0 0 0 0 0 0 0 0 0 0 0 0 0
7 4 6 3 1 0 0 0 0 0 0 0 0 0 0 0 0 0 0 0 0 0 0 0 0 0 0 0 0 0 0 0 0 0 0 0 0 0 0 0 0 0 0
4 0 0 0 0 0 0 0 0 0 0 0 0 0 0 0 0 0 0 0 0 0 0 0 0 0 0 0 0 0 0 0 0 0 0 0 0 0 0 1 0 0 0
0 0 0 0 0 0 0 0 0 0 0 0 0 0 0 0 0 0 0 0 0 0 0 0 0 0 0 0 0 0 0 0 0 0 0 0 0 0 0 0 0 0 0
0 0 0 0 0 0 0 0 0 0 0 0 0 0 0 0 0 0 0 0 0 0 0 0 0 0 0 0 0 0 0 0 0 0 0 0 0 0 0 0 0 0 0
0 0 0 0 0 0 0 0 0 0 0 0 0 0 0 0 0 0 0 0 0 0 0 0 0 0 0 0 0 0 0 0 0 0 0 0 0 0 0 0 0 0 0
0 0 0 0 0 0 0 0 0 0 0 0 0 0 0 0 0 0 0 0 0 0 0 0 0 0 0 0 0 0 0 0 0 0 0 0 0 0 1 0 0 0 0
0 0 0 0 0 0 0 0 0 0 0 0 0 0 0 0 0 0 0 0 0 0 0 0 0 0 0 0 0 0 0 0 0 0 0 0 0 0 0 0 0 0 0
0 0 0 0 0 0 0 0 0 0 0 0 0 0 0 0 0 0 0 0 0 0 0 0 0 0 0 0 0 0 0 0 0 0 0 0 0 0 0 0 0 1 1
0 0 0 0 0 0 0 0 0 0 0 0 0 0 0 0 0 0 0 0 0 0 0 0 0 0 0 0 0 0 0 0 0 0 0 0 0 0 0 1 3 6 2
0 0 0 0 0 0 0 0 0 0 0 0 0 0 0 0 0 0 0 0 0 0 0 0 0 0 0 0 0 0 0 0 0 0 0 0 0 0 2 2 7 4 5
0 0 0 0 0 0 0 0 0 0 0 0 0 0 0 0 0 0 0 0 0 0 0 0 0 0 0 0 0 0 0 0 0 0 0 0 1 1 3 3 4 4 4
CIN
0 0 0 0 -2 -2 -1 -1 -2 -3 -3 -1 0 -1 -1 -1 -3 -2 -6 -3 0 -175 -21 -15 -15 -55 -87 -117 -144 -145 -65 0 0 0 0 0 0 0 0 0 0 0 0
0 0 0 -1 -1 -1 -2 -1 -1 0 -1 -1 0 0 -1 -1 -3 -1 -2 -2 -2 -163 -11 -17 -12 -65 -123 -182 -128 0 0 0 0 0 0 0 0 0 0 0 0 0 0
0 0 -1 -1 -1 0 0 -1 -2 0 0 0 0 0 0 0 -1 -2 0 -2 -1 0 -7 -18 -42 -122 -1 0 0 0 0 0 0 0 0 0 0 0 0 0 0 0 0
0 -1 -1 -1 0 0 0 0 0 0 0 0 0 0 0 0 0 0 -2 -3 -4 -5 0 0 0 0 0 0 0 0 0 0 0 0 0 0 0 0 0 0 0 0 0
0 0 0 0 0 0 0 0 0 0 0 0 0 0 0 0 0 -1 -2 -2 -1 0 0 0 0 0 0 0 0 0 0 0 0 0 0 0 0 0 0 0 0 0 0
0 0 0 0 0 0 0 0 0 0 0 0 0 0 0 0 0 0 0 0 0 0 0 0 0 0 0 0 0 0 0 0 0 0 0 0 -1 -9 0 0 0 0 0
0 0 0 0 0 0 0 0 0 0 0 0 0 0 0 0 0 0 0 0 0 0 0 0 0 0 0 0 0 0 0 0 0 0 0 0 0 0 0 0 0 0 0
0 0 0 0 0 0 0 0 0 0 0 0 0 0 0 0 0 0 0 -1 -1 0 0 0 0 0 0 0 0 0 0 0 0 0 0 0 0 0 0 0 0 0 0
0 0 0 0 0 0 0 0 0 0 0 0 0 0 0 0 0 0 0 -1 0 0 0 0 0 0 0 0 0 0 0 0 0 0 0 0 0 0 0 0 0 0 0
0 0 0 0 0 0 0 0 0 0 0 0 0 0 0 0 0 0 0 0 0 0 0 0 0 0 0 0 0 0 0 0 0 0 0 0 0 0 0 0 0 0 0
0 0 0 0 0 0 0 0 0 -1 0 0 0 0 0 0 0 0 0 0 0 0 0 0 0 0 0 0 0 0 0 0 0 0 0 0 0 0 0 0 0 0 0
0 0 0 0 0 0 0 0 0 -1 -1 -1 -1 -1 -1 0 0 0 0 0 0 0 0 0 0 0 0 0 0 0 0 0 0 0 -4 -69 0 0 0 0 0 0 0
0 0 0 0 0 0 0 0 -1 -2 -2 -1 -1 0 0 0 0 0 0 0 0 0 0 0 0 0 0 0 0 0 0 0 0 0 0 0 0 0 0 0 0 0 0
0 0 0 0 0 0 0 0 0 0 0 -1 0 0 0 0 0 0 0 0 0 0 0 0 0 0 0 0 0 0 0 0 0 0 0 0 0 0 0 0 0 0 0
0 0 0 0 0 0 -1 0 0 0 0 0 0 0 0 0 0 0 0 0 0 0 0 0 0 0 0 0 0 0 0 0 0 0 0 0 0 0 0 0 0 0 0
0 0 0 0 0 0 0 0 0 0 0 0 0 0 0 0 0 0 0 0 0 0 0 0 0 0 0 0 0 0 0 0 0 0 0 0 0 0 -3 -5 0 0 0
0 -1 -2 -1 0 0 0 0 0 0 0 0 0 0 0 0 0 0 0 0 0 0 0 0 0 0 0 0 0 0 0 0 0 0 0 -1 0 -1 0 0 0 0 0
0 0 0 0 0 0 0 0 0 0 0 0 0 0 0 0 0 0 0 0 0 0 0 0 0 0 0 0 0 0 -10 0 0 0 0 0 0 0 0 0 0 0 0
0 0 0 0 0 0 0 0 0 0 0 0 0 0 0 0 0 0 0 0 0 0 0 0 0 0 0 0 0 -2 0 0 0 0 0 0 0 0 0 -1 -1 0 0
0 0 0 0 0 0 0 0 0 0 0 0 0 0 0 0 0 0 0 0 0 0 0 0 0 0 0 0 0 0 0 0 0 0 0 0 0 0 0 0 0 0 0
0 0 0 0 0 0 0 0 0 0 0 0 0 0 0 0 0 0 0 0 0 0 0 0 0 0 0 0 0 0 0 0 0 0 0 0 -2 0 0 0 0 0 0
0 0 0 0 0 0 0 0 0 0 0 0 0 0 0 0 0 0 0 0 0 0 0 0 0 0 0 0 0 0 0 0 0 0 0 0 0 0 0 0 0 0 0
0 0 0 0 0 0 0 0 0 0 0 0 0 0 0 0 0 0 0 0 0 0 0 0 0 0 0 0 0 0 0 0 0 0 0 0 0 0 0 0 0 0 0
0 0 0 0 0 0 0 0 0 0 0 0 0 0 0 0 0 0 0 0 0 0 0 0 0 0 0 0 0 0 0 0 0 0 0 0 0 0 0 0 0 0 0
0 0 0 0 0 0 0 0 0 0 0 0 0 0 0 0 0 0 0 0 0 0 0 0 0 0 0 0 0 0 0 0 0 0 0 0 0 0 0 0 0 0 0
0 0 0 0 0 0 0 0 0 0 0 0 0 0 0 0 0 0 0 0 0 0 0 0 0 0 0 0 0 0 0 0 0 0 0 0 0 0 0 0 0 0 0
Wind_Speed
6 9 13 13 14 14 15 15 17 15 15 15 15 15 15 15 14 12 11 12 12 11 8 7 10 9 8 5 3 3 2 1 4 1 2 3 3 4 3 2 2 3 4
9 14 14 15 15 15 15 16 16 15 16 16 16 16 15 15 14 16 13 9 10 10 8 8 10 5 7 4 4 5 5 2 3 4 2 2 3 3 4 2 2 4 4
15 14 15 15 16 16 17 16 16 16 17 16 16 15 16 15 14 13 15 12 11 11 11 9 7 5 5 7 6 7 4 2 4 4 4 2 2 3 2 2 3 4 4
15 14 14 16 16 16 17 17 16 15 15 15 15 16 16 15 14 12 12 9 9 3 3 6 5 6 11 10 8 8 4 5 6 7 6 3 4 3 4 2 3 2 3
15 14 16 16 16 16 16 16 15 14 12 14 16 17 12 11 9 11 10 9 5 8 9 10 12 17 19 11 8 7 8 8 6 6 5 4 3 3 3 3 3 3 3
15 15 15 16 16 16 14 13 12 11 11 11 12 4 6 7 12 15 10 9 11 12 13 12 13 22 23 24 25 22 12 9 9 7 4 5 3 3 0 2 3 2 3
13 15 15 16 15 14 12 11 11 10 10 11 11 10 8 7 7 18 21 12 12 11 12 11 12 10 14 14 20 20 18 18 12 6 5 3 2 3 0 2 2 2 2
14 14 15 15 13 12 11 11 11 10 12 11 13 12 13 13 18 24 26 17 15 15 12 12 12 12 11 13 13 12 10 7 5 4 4 4 3 3 2 1 2 3 2
14 14 14 13 12 11 12 12 10 10 11 13 13 15 15 15 18 17 22 16 16 15 12 12 11 13 14 11 12 11 5 1 3 7 7 6 5 5 4 4 4 3 2
13 12 12 12 12 11 11 10 10 9 11 11 13 14 22 16 21 19 15 13 16 11 11 11 15 9 10 9 7 4 5 2 1 4 2 2 2 4 3 3 3 3 2
12 10 11 12 11 11 11 11 10 11 12 13 13 13 15 15 17 20 17 12 10 10 9 7 5 11 9 9 6 4 4 3 0 1 4 3 2 4 3 3 3 2 2
11 11 11 12 10 10 13 12 12 11 12 12 13 13 12 13 20 20 21 16 10 10 7 4 4 8 6 1 3 4 1 2 1 2 4 3 2 1 5 4 5 4 4
10 12 11 11 10 11 12 11 9 11 11 11 10 10 9 9 9 18 19 16 15 7 5 6 6 6 5 5 14 16 9 6 6 7 7 7 5 3 3 4 6 5 5
12 11 10 11 12 11 10 9 9 9 9 9 9 8 7 6 6 5 5 5 7 5 6 5 5 6 6 6 10 10 7 7 7 6 5 3 2 3 4 3 3 4 3
10 10 11 9 10 11 12 9 9 10 8 7 6 5 6 7 6 8 7 4 4 4 6 3 7 9 9 8 9 10 9 8 8 7 6 5 5 4 3 2 2 2 2
10 8 9 9 9 8 8 8 13 12 13 12 11 7 5 6 11 12 11 9 9 6 8 9 8 7 7 8 7 7 8 9 6 6 6 5 3 3 3 3 4 5 4
11 10 8 8 7 6 5 6 6 7 8 9 10 11 9 10 15 15 19 19 19 14 10 10 9 8 5 5 6 7 6 4 5 5 3 3 4 4 6 5 5 5 4
4 6 4 3 3 3 4 3 3 3 4 4 6 5 9 10 17 17 15 12 11 12 10 10 9 9 9 7 5 4 5 6 4 4 4 4 4 5 5 5 4 4 4
3 2 2 2 3 4 3 4 4 4 4 5 7 11 13 18 18 20 16 9 9 9 9 9 9 9 9 9 8 5 6 5 5 5 5 5 6 6 5 4 3 3 3
3 3 2 0 2 3 4 4 5 6 7 8 8 6 7 10 11 11 11 11 11 10 9 9 8 7 8 8 8 8 6 7 7 6 6 6 5 4 4 4 4 4 4
3 2 5 4 4 4 4 4 4 5 6 6 7 7 8 6 7 8 9 10 10 9 8 8 7 8 6 6 7 6 7 6 6 6 5 4 4 4 4 4 4 4 4
5 5 5 4 4 4 4 4 4 5 5 6 5 7 10 7 8 9 10 8 7 8 7 7 7 6 5 6 5 5 5 5 6 6 4 4 5 4 4 4 5 4 4
6 1 3 2 1 2 4 4 5 5 5 5 5 5 7 6 7 8 9 9 9 7 5 5 7 7 7 7 6 5 6 6 6 6 4 4 5 4 4 5 5 5 4
5 2 3 2 1 4 5 5 5 6 6 5 5 5 5 6 7 8 6 7 7 7 7 8 7 10 10 9 7 7 6 6 5 5 7 6 5 6 6 6 6 8 5
2 4 5 5 5 5 5 6 5 6 5 6 8 8 7 9 9 8 6 7 7 7 8 8 8 12 13 14 12 12 10 8 8 6 6 7 9 10 8 8 7 6 7
2 4 4 5 5 6 5 5 5 5 5 6 7 7 6 7 7 7 7 8 8 9 10 9 11 15 13 10 11 10 11 10 9 9 8 8 9 9 7 9 11 6 8
Wind_Direction
347 330 325 314 307 305 299 295 294 288 280 277 276 275 271 268 260 261 265 269 267 268 262 240 249 249 248 240 201 133 130 166 136 244 104 126 111 130 128 130 143 217 241
336 329 320 313 309 307 299 296 294 289 284 280 272 267 266 265 264 264 263 270 280 275 262 241 249 242 243 163 115 118 112 30 127 127 88 97 110 126 147 175 256 253 251
332 326 317 315 314 307 301 297 294 288 283 279 272 266 261 255 254 255 260 262 269 271 265 250 246 212 134 118 129 104 100 115 95 121 116 106 96 102 71 341 299 283 279
329 319 317 319 312 307 303 300 297 291 284 279 270 260 250 247 247 249 253 249 259 283 54 65 62 114 121 119 110 105 130 90 96 104 96 107 106 60 49 44 325 333 307
327 329 322 318 315 312 309 305 300 300 298 290 281 267 236 236 239 239 239 246 159 101 80 77 78 89 89 99 109 102 93 87 75 68 64 55 50 65 50 0 335 297 303
330 326 331 323 320 317 314 318 321 319 316 312 312 228 224 234 232 228 226 117 106 108 95 86 82 84 82 86 84 77 77 99 91 89 81 84 51 59 71 228 242 353 341
335 335 329 325 324 327 331 339 342 344 345 4 15 41 43 27 110 110 110 98 96 94 96 95 90 83 89 86 79 79 68 65 78 92 95 88 164 198 171 324 5 17 283
341 336 333 329 335 343 349 356 355 8 20 23 29 37 54 44 67 97 93 92 87 80 79 84 88 89 83 90 89 80 70 61 69 103 148 160 118 88 95 216 267 289 307
339 340 336 341 351 355 359 10 8 26 37 38 40 44 50 46 48 73 93 91 86 79 73 73 79 79 62 73 92 93 64 36 232 97 90 97 90 70 50 56 15 34 331
338 339 345 356 2 3 6 13 18 28 44 47 47 50 54 55 48 56 79 92 89 85 72 66 65 78 76 81 83 75 112 241 176 76 40 325 332 311 284 190 172 51 341
337 2 5 7 12 14 17 24 30 41 46 49 54 52 55 59 56 57 61 81 88 92 85 80 75 80 72 77 89 153 173 160 105 241 181 215 225 263 272 245 234 152 155
13 15 10 19 23 22 30 29 31 39 48 50 56 59 53 55 54 50 52 51 67 91 86 68 56 29 18 168 238 255 78 85 50 141 108 155 194 91 42 80 24 41 80
24 25 23 23 32 36 36 37 39 39 49 55 55 54 46 38 39 29 35 34 41 47 31 18 1 338 337 34 32 38 49 58 50 44 56 71 71 68 71 67 25 39 71
35 28 26 37 40 41 46 39 38 38 45 49 45 38 28 22 17 7 3 6 7 26 23 359 325 335 17 23 41 38 42 56 60 65 64 64 50 48 58 59 51 357 25
40 35 36 35 40 52 52 42 51 43 46 57 32 21 23 23 345 331 348 341 346 348 352 17 60 59 52 45 44 38 34 38 41 39 42 28 31 24 36 65 78 12 44
47 37 42 46 48 49 51 44 32 39 39 36 13 13 336 314 330 332 343 11 21 7 58 51 49 58 60 55 50 45 37 39 29 40 36 17 3 15 11 15 51 22 11
63 66 62 57 42 37 36 43 44 11 2 351 333 338 337 329 356 28 49 47 43 47 50 42 41 40 22 58 65 49 45 31 28 24 4 348 0 29 27 37 27 13 2
94 59 69 75 52 20 22 19 0 357 330 332 324 315 338 24 48 46 44 49 51 46 49 45 39 31 29 28 52 57 40 24 4 10 11 13 21 39 26 24 23 357 337
62 59 54 32 2 6 0 356 337 336 358 22 30 38 31 37 38 34 30 45 48 49 46 44 39 34 26 20 18 48 40 22 1 9 13 32 31 27 18 354 335 332 330
1 23 28 260 305 322 346 2 15 23 41 44 45 33 33 44 47 45 44 45 44 45 41 42 29 33 31 22 14 11 15 24 13 11 26 31 24 12 2 354 335 354 5
315 340 76 49 36 30 30 29 29 34 49 47 47 40 44 54 52 54 58 53 47 40 35 33 32 29 18 19 15 10 11 5 1 11 19 5 345 11 3 351 348 3 13
12 52 53 56 49 32 5 8 8 39 42 40 33 42 45 54 58 56 50 47 51 47 37 33 31 19 13 4 359 2 350 355 353 345 341 13 13 16 1 345 352 354 358
344 22 103 102 64 9 343 18 47 45 43 44 46 44 48 48 52 55 53 46 39 30 17 22 33 23 15 5 6 7 7 346 325 337 19 23 22 4 351 359 7 29 38
323 21 135 199 136 65 60 56 53 49 52 51 49 48 48 53 58 56 58 56 45 33 26 23 19 25 18 12 4 2 359 337 345 21 36 28 18 11 20 30 28 28 33
317 59 64 56 62 63 53 50 46 43 43 52 51 51 47 50 50 47 50 49 42 33 26 24 22 17 17 10 9 7 0 356 26 26 33 36 32 32 29 35 28 29 40
99 78 68 69 64 66 63 57 50 46 45 46 48 47 48 53 54 54 50 48 43 34 28 23 19 19 10 8 5 1 6 20 23 20 36 40 39 32 29 31 28 36 41